Location: Wald
(31.7579°N, 86.6655°W)
Time: 00:54:53
(UTC+00:00)

Cosmos 1538 Rocket - Pass Details

Date: 14 July 2020
Orbit: 753 x 791 km, 74.0° (Epoch: 12 August)

Event Time Altitude Azimuth Distance (km) Brightness Sun altitude
Rises 01:47:37 0° 200° (SSW) 3,269 7.1 -10.7°
Reaches altitude 10° 01:50:01 10° 203° (SSW) 2,341 6.4 -11.2°
Maximum altitude 01:55:20 71° 287° (WNW) 827 4.4 -12.1°
Drops below altitude 10° 02:00:38 10° 12° (NNE) 2,335 6.8 -13.0°
Sets 02:03:02 0° 14° (NNE) 3,260 7.6 -13.4°
